Regional Weather Roundup
Issued by NWS State College, PA

Home | Current Version | Previous Version | Graphics & Text | Print | Product List | Glossary Off
Versions: 1 2 3 4 5 6 7 8 9 10 11 12 13 14 15 16 17 18 19 20 21 22 23 24 25 26 27 28 29 30 31 32 33 34 35 36 37 38 39 40 41 42 43 44 45 46 47 48 49 50

000
ASUS41 KCTP 281410
RWRCTP

REGIONAL WEATHER ROUNDUP
NATIONAL WEATHER SERVICE STATE COLLEGE PA
1000 AM EDT TUE JUL 28 2015

Note: "fair" indicates few or no clouds below 12,000 feet with no
significant weather and/or obstructions to visibility.

* = STATION THAT DOES NOT REPORT PRECIPITATION /E.G. RAIN...SNOW...ETC/
    THUNDER OR FOG.

PAZ002>004-007>009-013>016-020>023-029>032-281500-
WESTERN PENNSYLVANIA

CITY           SKY/WX    TMP DP  RH WIND       PRES   REMARKS
ERIE           SUNNY     83  65  54 N3        30.05S
MEADVILLE      LGT RAIN  79  64  60 E5        30.08F
FRANKLIN*      SUNNY     77  64  65 E6        30.10S
NEW CASTLE     FAIR      79  72  79 CALM      30.06F
BEAVER COUNTY  SUNNY     79  68  69 E5        30.07S
BUTLER*        SUNNY     77  70  78 E7        30.09S
PITTSBURGH INT SUNNY     78  69  73 VRB3      30.05S
PITTSBURGH     SUNNY     78  66  66 NE3       30.05S
INDIANA*       SUNNY     75  70  83 E7        30.11S
LATROBE        SUNNY     77  72  83 E8        30.07S
WASHINGTON CO* NOT AVBL
$$

PAZ004>006-010>012-017>019-024>028-033>037-041-042-045-046-049>053-281500-
CENTRAL PENNSYLVANIA

CITY           SKY/WX    TMP DP  RH WIND       PRES   REMARKS
BRADFORD       SUNNY     78  59  51 N3        30.13S
DUBOIS         SUNNY     78  66  66 E3        30.10S
CLEARFIELD     MOSUNNY   72  67  84 NE3       30.10F
JOHNSTOWN      MOSUNNY   75  67  76 E6        30.11S
ALTOONA        CLOUDY    73  69  87 VRB3      30.09F FOG
STATE COLLEGE  CLOUDY    68  68 100 CALM      30.09S FOG
WILLIAMSPORT   CLOUDY    71  66  84 SW5       30.05S HAZE
SELINSGROVE    CLOUDY    72  69  90 CALM      30.06F FOG
FT INDIANTOWN  SUNNY     76  76 100 SW5       30.04S
CAPITAL CITY   CLOUDY    78  71  79 CALM      30.04S HAZE
HARRISBURG     CLOUDY    77  72  84 CALM      30.03S HAZE
YORK           CLOUDY    74  72  93 CALM      30.05S FOG
$$

PAZ038>040-043-044-047-048-054-055-060>062-067>071-281500-
EASTERN PENNSYLVANIA

CITY           SKY/WX    TMP DP  RH WIND       PRES   REMARKS
SCRANTON       SUNNY     71  67  87 W3        30.06F
MOUNT POCONO   SUNNY     79  63  57 N7        30.09F
ALLENTOWN      SUNNY     82  70  66 CALM      30.03S
QUAKERTOWN*    SUNNY     82  72  69 CALM      30.04F
READING        SUNNY     81  71  71 VRB3      30.02F HAZE
LANCASTER      CLOUDY    75  72  90 CALM      30.04S FOG
COATESVILLE    SUNNY     77  75  94 CALM      30.06S FOG
POTTSTOWN      SUNNY     76  73  91 CALM      30.04F
BLUE BELL      SUNNY     81  73  78 CALM      30.02F
DOYLESTOWN     SUNNY     81  70  69 CALM      30.01F
WILLOW GROVE   NOT AVBL
NORTH PHILA    SUNNY     85  70  60 NE3       30.02F
PHILADELPHIA   MOSUNNY   83  73  72 SE5       30.02S
$$


USA.gov is the U.S. government's official web portal to all federal, state and local government web resources and services.